Mt. Clemens, MI

9:12 PM EDT on September 20, 2017 (GMT -0400)
Selfridge Angb

Weather History for KMTC - January, 2013

Change the Weather History Date:

Sunday, January 6, 2013

  Actual Average Record
Temperature  
Mean Temperature 34 °F -  
Max Temperature 35 °F 30 °F 59 °F (1998)
Min Temperature 32 °F 19 °F -12 °F (2014)
Degree Days  
Heating Degree Days 31    
Moisture  
Dew Point 30 °F    
Average Humidity 83    
Maximum Humidity 93    
Minimum Humidity 70    
Precipitation  
Precipitation 0.00 in - - ()
Snow  
Snow 0.00 in - - ()
Snow Depth 5.00 in    
Sea Level Pressure  
Sea Level Pressure 30.00 in    
Wind  
Wind Speed 11 mph (West)    
Max Wind Speed 16 mph    
Max Gust Speed 23 mph    
Visibility 7 miles    
Events Rain , Snow    
Averages and records for this station are not official NWS values.
T = Trace of Precipitation, MM = Missing Value Source: NWS Daily Summary

Daily Weather History Graph

Daily Weather History Graph

Search for Another Location

Airport or City:

Trip Planner

Search our weather history database for the weather conditions in past years. The results will help you decide how hot, cold, wet, or windy it might be!

Date:

Astronomy

Jan. 06, 2013 Rise Set
Actual Time 8:01 AM EST 5:13 PM EST
Civil Twilight 7:29 AM EST 5:45 PM EST
Nautical Twilight 6:54 AM EST 6:20 PM EST
Astronomical Twilight 6:20 AM EST 6:54 PM EST
Moon 2:11 AM EST (1/6) 12:42 PM EST (1/6)
Length of Visible Light 10h 15m
Length of Day
9h 12m
Waning Crescent, 33% of the Moon is Illuminated
Jan 6
Waning Crescent
Jan 11
New
Jan 18
First Quarter
Jan 26
Full
Feb 3
Last Quarter

Hourly Weather History & Observations

Time (EST) Temp. Windchill Dew Point Humidity Pressure Visibility Wind Dir Wind Speed Gust Speed Precip Events Conditions
4:10 AM 33.8 °F 24.8 °F 30.2 °F 87% 29.92 in 12.0 mi SW 12.7 mph - N/A   Overcast
4:55 AM 33.8 °F 24.3 °F 30.2 °F 87% 29.95 in 10.0 mi SW 13.8 mph - N/A Snow Light Snow
5:55 AM 33.8 °F 24.8 °F 30.2 °F 87% 29.94 in 12.0 mi SW 12.7 mph - N/A Snow Light Snow
6:55 AM 33.8 °F 24.8 °F 32.0 °F 93% 29.94 in 10.0 mi SW 12.7 mph - N/A Snow Light Snow
7:34 AM 33.8 °F 26.4 °F 32.0 °F 93% 29.89 in 12.0 mi SW 9.2 mph - N/A   Overcast
7:55 AM 33.8 °F 26.4 °F 30.2 °F 87% 29.93 in 7.0 mi SW 9.2 mph - N/A   Overcast
8:55 AM 33.8 °F 26.4 °F 30.2 °F 87% 29.94 in 7.0 mi SSW 9.2 mph - N/A   Overcast
9:55 AM 35.6 °F 28.6 °F 30.2 °F 81% 29.95 in 5.0 mi SSW 9.2 mph - N/A   Haze
10:55 AM 35.6 °F 28.6 °F 30.2 °F 81% 29.95 in 5.0 mi SW 9.2 mph - N/A   Haze
11:55 AM 35.6 °F 27.1 °F 30.2 °F 81% 29.94 in 5.0 mi SW 12.7 mph - N/A   Haze
12:26 PM 35.6 °F 28.6 °F 32.0 °F 87% 29.89 in 4.0 mi SW 9.2 mph - N/A Snow Light Snow
12:55 PM 35.6 °F 29.2 °F 32.0 °F 87% 29.93 in 5.0 mi SW 8.1 mph - N/A Rain , Snow Light Rain
1:42 PM 35.6 °F 27.5 °F 32.0 °F 87% 29.88 in 5.0 mi WSW 11.5 mph - N/A Rain , Snow Light Rain
1:55 PM 35.6 °F 28.0 °F 32.0 °F 87% 29.92 in 6.0 mi SW 10.4 mph - N/A Rain , Snow Light Rain
2:55 PM 35.6 °F 27.1 °F 32.0 °F 87% 29.94 in 6.0 mi WSW 12.7 mph - N/A Rain , Snow Light Rain
3:46 PM 35.6 °F 29.2 °F 33.8 °F 93% 29.93 in 5.0 mi West 8.1 mph - N/A   Overcast
3:55 PM 35.6 °F 28.6 °F 33.8 °F 93% 29.98 in 6.0 mi West 9.2 mph - N/A   Overcast
4:15 PM 35.6 °F 26.6 °F 30.2 °F 81% 29.95 in 7.0 mi WNW 13.8 mph 23.0 mph N/A Snow Light Snow
4:37 PM 35.6 °F 27.1 °F 28.4 °F 75% 29.96 in 7.0 mi WNW 12.7 mph - N/A   Overcast
4:58 PM 35.6 °F 28.0 °F 28.4 °F 75% 29.98 in 7.0 mi WNW 10.4 mph 19.6 mph N/A   Overcast
5:55 PM 33.8 °F 24.3 °F 26.6 °F 75% 30.06 in 7.0 mi WNW 13.8 mph - N/A   Mostly Cloudy
6:55 PM 33.8 °F 26.4 °F 24.8 °F 70% 30.11 in 7.0 mi WNW 9.2 mph - N/A   Overcast
7:55 PM 33.8 °F 24.8 °F 26.6 °F 75% 30.15 in 7.0 mi NW 12.7 mph 17.3 mph N/A   Overcast
8:07 PM 33.8 °F 26.4 °F 26.6 °F 75% 30.11 in 7.0 mi NW 9.2 mph - N/A   Overcast
8:55 PM 33.8 °F 26.4 °F 26.6 °F 75% 30.17 in 7.0 mi NW 9.2 mph - N/A   Overcast
9:55 PM 33.8 °F 25.8 °F 28.4 °F 81% 30.20 in 7.0 mi NW 10.4 mph - N/A   Overcast
10:29 PM 33.8 °F 23.5 °F 28.4 °F 81% 30.18 in 7.0 mi NNW 16.1 mph - N/A   Overcast
10:55 PM 32.0 °F 22.5 °F 28.4 °F 87% 30.23 in 7.0 mi North 12.7 mph - N/A   Overcast